Location: Goettingen
(51.5300°N, 9.9433°E)
Time: 22:38:12
(UTC+02:00)

N. Korean satellite - Pass Details

Date: 26 September 2021
Orbit: 450 x 495 km, 97.3° (Epoch: 23 October)

Event Time Altitude Azimuth Distance (km) Brightness Sun altitude
Rises 06:35:26 0° 15° (NNE) 2,526 10.5 -6.6°
Reaches altitude 10° 06:37:30 10° 19° (NNE) 1,651 9.6 -6.3°
Maximum altitude 06:41:01 62° 101° (E) 543 7.2 -5.8°
Drops below altitude 10° 06:44:34 10° 183° (S) 1,662 9.2 -5.2°
Sets 06:46:40 0° 187° (S) 2,545 10.1 -4.9°
